星链-5765 (STARLINK-5765 )

导读 | 星芒AI

STARLINK-5765 是 SpaceX Starlink 项目中的一颗低轨通信卫星,属于第 21 批部署的星链卫星群。该卫星于 2022 年 3 月 30 日由猎鹰 9 号火箭从卡纳维拉尔角发射升空,运行在约 550 公里的轨道高度,用于提供全球宽带互联网服务。Starlink 卫星采用先进推进系统和激光通信技术,旨在提升连接速度与稳定性。STARLINK-5765 在轨正常运行,为全球用户,特别是偏远地区,提供高速网络接入服务。

基本信息
目录编号:
57147
目录名称:
STARLINK-5765
国际标识:
2023-090AY
轨道中心:
EARTH
卫星名称:
星链-5765
卫星全名:
星链-5765 (STARLINK-5765 )
卫星状态:
在轨 (已飞行865 天)
发射日期:
2023-06-23 UTC
国别 :
美国 (US)
星等 :
--
轨道信息
数据来源 国际轨道数据
星历时间: 2025-11-03T20:09:03+0800
23小时前
查看轨道信息
半长轴: 6937.226km
偏心率: 0.0001282
轨道倾角: 43.003°
近地点辐角 271.494°
升交点赤经 227.140°
平近点角 88.575°
近地点: 558.201km
远地点: 559.981km
周期: 95.838分钟
每日圈数: 15.025331
详细信息
固有亮度:
5
最大亮度:
2.4
卫星平台:
Starlink v1.5
覆盖范围:
全球
运营商:
太空探索技术公司
运营商所在国:
美国
制造商(研发单位):
太空探索技术公司
制造商所在国:
美国
使用方式:
暂无
卫星简介
星链(Starlink)计划是由太空探索技术公司(SpaceX)提出的一个巨型低轨卫星互联网星座项目,计划在2019年至2024年间在太空搭建由约1.2万颗卫星组成的“星链”网络,其中1584颗将部署在地球上空550千米处的近地轨道,并从2020年开始工作。该卫星仍在工作。
2D轨道图
3D轨道图
轨道高度分析图
轨道倾角分析图
轨道综合分析图
查看轨道综合分析图